Tracking 20041 objects as of 22-Nov-2019
Live streaming from Space Station
objects crossing your sky now

COSMOS 592

Track COSMOS 592 now!
10-day predictions
COSMOS 592 is classified as:


NORAD ID: 6849
Int'l Code: 1973-069E
Perigee: 1,338.1 km
Apogee: 1,490.3 km
Inclination: 74.0 °
Period: 113.9 minutes
Semi major axis: 7785 km
RCS: 0.7024 m2 (medium)
Launch date: October 2, 1973
Source: Commonwealth of Independent States (former USSR) (CIS)
Launch site: PLESETSK MISSILE AND SPACE COMPLEX (PKMTR)
aabbcc
Your satellite tracking list
Your tracking list is empty




NASA's NSSDC Master Catalog

Two Line Element Set (TLE):
1  6849U 73069E   19325.71303261 -.00000019 +00000-0 -18581-4 0  9994
2  6849 074.0028 011.8584 0097706 089.3458 271.8795 12.63858394128507
Source of the keplerian elements: AFSPC